Location: Unspecified
(0.0000°N, 0.0000°E)
Time: 02:22:13
(UTC+00:00)

Vanguard 2 - Pass Details

Date: 16 December 2018
Orbit: 553 x 2939 km, 32.9° (Epoch: 16 January)

Event Time Altitude Azimuth Distance (km) Brightness Sun altitude
Rises 23:53:46 0° 338° (NNW) 4,310 - -66.7°
Reaches altitude 10° 23:57:57 10° 359° (N) 3,774 - -66.7°
Maximum altitude 00:03:59 17° 35° (NE) 3,829 - -66.6°
Drops below altitude 10° 00:11:37 10° 69° (ENE) 4,975 - -66.4°
Exits shadow 00:15:19 - 80° (E) 5,721 11.9 -66.2°
Sets 00:18:35 0° 87° (E) 6,411 12.3 -66.0°
